[[{"header":{"parameterUnit":"m.s-1","parameterCategory":1,"la1":30.2991,"la2":30.254,"lo1":-89.0895,"lo2":-89.0444,"dy":0.0017,"dx":0.0017,"nx":28,"ny":28,"refTime":"2024-08-09T15:00:00:Z","depth":0,"parameterNumber":2,"parameterNumberName":"U-component_of_WINDS"},"data":[0,0,0,0,0,0,0,0,0,0,0,0,0,0,0,0,0,0,0,0,0,0,0,0,0,0,0,0,0,0,0,0,0,0,0,0,0,0,0,0,0,0,0,0,0,0,0,0,0,0,0,0,0,0,0,0,0,0,-1.6501,-1.6501,0,-1.6504,-1.6504,-1.6504,-1.6493,-1.6492,-1.6492,-1.6492,-1.6494,-1.6495,-1.6495,0,0,0,0,0,0,0,0,0,0,0,0,0,-1.6485,-1.6485,-1.6501,-1.6501,-1.6501,-1.6504,-1.6504,-1.6504,-1.6493,-1.6492,-1.6492,-1.6492,-1.6494,-1.6495,-1.6495,0,0,0,0,0,0,0,0,0,0,0,0,0,-1.649,-1.6485,-1.65,-1.6495,-1.6495,-1.6504,-1.6504,-1.6504,-1.6493,-1.6492,-1.6492,-1.6491,-1.6494,-1.6495,-1.6495,-1.6509,0,0,-1.6497,-1.6497,0,0,0,0,0,0,0,0,-1.649,-1.6491,-1.6496,-1.6496,-1.6495,-1.6497,-1.6499,-1.6505,-1.6493,-1.6494,-1.6492,-1.6491,-1.6496,-1.6496,-1.6498,-1.6509,-1.6509,-1.6497,-1.6497,-1.6498,-1.6498,0,0,0,0,0,0,0,-1.649,-1.6491,-1.6502,-1.6496,-1.6496,-1.6493,-1.6493,-1.65,-1.6497,-1.6494,-1.6493,-1.6493,-1.6495,-1.6497,-1.6498,-1.6509,-1.6497,-1.6498,-1.6498,-1.6498,-1.6532,-1.6533,0,0,0,0,0,0,-1.649,-1.649,-1.6502,-1.6502,-1.6491,-1.6494,-1.6494,-1.6497,-1.6497,-1.6497,-1.6494,-1.6493,-1.6497,-1.6497,-1.6498,-1.6514,-1.6498,-1.6498,-1.6499,-1.6532,-1.6533,-1.6533,0,0,0,0,0,0,-1.649,-1.6491,-1.6502,-1.6496,-1.6497,-1.6495,-1.6498,-1.6498,-1.6499,-1.6498,-1.6497,-1.6496,-1.6496,-1.6497,-1.6506,-1.6514,-1.6498,-1.6499,-1.6531,-1.6532,-1.6533,-1.6547,0,0,0,0,0,0,-1.6489,-1.6491,-1.6496,-1.6496,-1.6497,-1.651,-1.6499,-1.6498,-1.6501,-1.6499,-1.65,-1.6499,-1.6496,-1.6506,-1.6507,-1.6515,-1.6499,-1.653,-1.6532,-1.6533,-1.6546,-1.6549,-1.6551,0,0,0,0,0,-1.6489,-1.6499,-1.6496,-1.6498,-1.6504,-1.651,-1.6511,-1.6507,-1.6501,-1.6506,-1.6505,-1.6499,-1.6513,-1.6507,-1.6508,-1.6516,-1.653,-1.6531,-1.6533,-1.6545,-1.6548,-1.6551,0,0,0,0,0,0,-1.65,-1.6499,-1.6496,-1.6507,-1.6509,-1.6509,-1.6515,-1.651,-1.6514,-1.6513,-1.6508,-1.6508,-1.6518,-1.6518,-1.6511,-1.653,-1.6521,-1.6522,-1.653,-1.6532,-1.6535,-1.6535,-1.65,0,0,0,0,0,-1.6503,-1.6509,-1.6509,-1.6518,-1.652,-1.6517,-1.652,-1.6517,-1.6519,-1.6519,-1.6519,-1.6521,-1.6526,-1.6529,-1.6533,-1.6546,-1.6546,-1.6552,-1.6555,-1.6556,-1.6558,-1.6566,-1.6569,-1.6537,-1.6537,-1.6537,0,0,-1.6511,-1.6512,-1.6516,-1.6521,-1.6522,-1.6528,-1.6518,-1.6525,-1.6529,-1.652,-1.6529,-1.6529,-1.6531,-1.6542,-1.6547,-1.6543,-1.6567,-1.6558,-1.656,-1.656,-1.6567,-1.657,-1.6573,-1.6538,-1.6538,-1.6538,0,0,-1.6529,-1.6529,-1.6538,-1.654,-1.6542,-1.6541,-1.6543,-1.6544,-1.6543,-1.6552,-1.6546,-1.6552,-1.656,-1.6562,-1.6564,-1.6583,-1.6578,-1.6585,-1.6597,-1.6604,-1.6607,-1.6609,-1.6616,-1.6619,-1.6586,-1.6586,-1.6586,0,-1.6538,-1.6547,-1.6543,-1.6551,-1.6554,-1.6547,-1.6556,-1.6557,-1.6561,-1.6563,-1.6558,-1.6569,-1.6569,-1.6582,-1.6586,-1.6588,-1.6591,-1.6585,-1.6607,-1.6609,-1.6611,-1.6618,-1.6621,-1.6587,-1.6587,-1.6587,-1.6587,0,-1.6559,-1.6566,-1.6573,-1.6577,-1.658,-1.6589,-1.6586,-1.659,-1.6587,-1.6586,-1.6596,-1.6597,-1.6602,-1.6604,-1.6601,-1.6616,-1.6613,-1.6607,-1.6598,-1.6615,-1.6621,-1.6624,-1.6588,-1.6588,-1.6588,-1.6587,0,0,-1.6583,-1.6586,-1.6589,-1.6591,-1.6593,-1.6598,-1.6607,-1.6612,-1.6616,-1.6618,-1.6626,-1.6633,-1.6628,-1.6631,-1.6627,-1.6634,-1.6651,-1.6627,-1.6627,-1.6632,-1.6669,-1.6674,-1.6677,-1.6647,-1.6648,-1.6648,-1.6669,0,-1.6601,-1.6616,-1.6613,-1.6627,-1.6634,-1.6627,-1.6635,-1.6637,-1.6637,-1.6642,-1.6642,-1.6648,-1.664,-1.6641,-1.6648,-1.6647,-1.6658,-1.6646,-1.6654,-1.6655,-1.6655,-1.668,-1.6685,-1.6705,-1.6671,-1.6672,-1.6672,0,-1.6623,-1.6628,-1.6643,-1.6646,-1.6648,-1.6655,-1.666,-1.6665,-1.6668,-1.6667,-1.6671,-1.6667,-1.6675,-1.6666,-1.6678,-1.667,-1.6673,-1.6674,-1.6674,-1.6675,-1.6665,-1.6682,-1.671,-1.6714,-1.6676,-1.6676,-1.6675,0,-1.6641,-1.665,-1.6661,-1.6663,-1.6666,-1.6671,-1.6672,-1.6675,-1.6678,-1.6683,-1.6685,-1.669,-1.6693,-1.6698,-1.6695,-1.6688,-1.6708,-1.6698,-1.6708,-1.6708,-1.6713,-1.6713,-1.6742,-1.6714,-1.6714,-1.6714,-1.6714,0,-1.6661,-1.6671,-1.6669,-1.6675,-1.6686,-1.6683,-1.6694,-1.6695,-1.6697,-1.6704,-1.6699,-1.6705,-1.6701,-1.6708,-1.6706,-1.6717,-1.6718,-1.6718,-1.6717,-1.6719,-1.6719,-1.6721,-1.672,-1.6715,-1.6715,-1.6714,-1.6714,0,-1.6682,-1.6681,-1.6692,-1.6694,-1.6695,-1.6703,-1.6705,-1.6711,-1.6711,-1.672,-1.6722,-1.6721,-1.6728,-1.6726,-1.6734,-1.6733,-1.6747,-1.6744,-1.6746,-1.6746,-1.6756,-1.6755,-1.6789,-1.6793,-1.6762,-1.6762,-1.6762,0,-1.6695,-1.6703,-1.6706,-1.671,-1.6712,-1.6719,-1.6724,-1.6721,-1.6725,-1.673,-1.6736,-1.6743,-1.6748,-1.676,-1.676,-1.6766,-1.6764,-1.6776,-1.6765,-1.6767,-1.6765,-1.6765,-1.6766,-1.6778,-1.6778,-1.6778,-1.6779,0,-1.6719,-1.6719,-1.6725,-1.6731,-1.6736,-1.6741,-1.6745,-1.6749,-1.6747,-1.6752,-1.676,-1.6764,-1.6773,-1.678,-1.6786,-1.6787,-1.6783,-1.6782,-1.6785,-1.6786,-1.6787,-1.6788,-1.6752,-1.6781,-1.6781,-1.6781,-1.6781,-1.678,-1.6737,-1.6744,-1.6748,-1.6755,-1.6758,-1.6763,-1.6769,-1.677,-1.6776,-1.6783,-1.6781,-1.679,-1.6794,-1.6801,-1.6804,-1.6811,-1.6806,-1.681,-1.6811,-1.6812,-1.6814,-1.6786,-1.6812,-1.6812,-1.6811,-1.6811,-1.6811,0,-1.6761,-1.6764,-1.6771,-1.6777,-1.6783,-1.6779,-1.6784,-1.6789,-1.6797,-1.6801,-1.6807,-1.6816,-1.6823,-1.6825,-1.6831,-1.6837,-1.6835,-1.6839,-1.6839,-1.6839,-1.6817,-1.6814,-1.684,-1.684,-1.684,-1.684,-1.684,-1.684,-1.6775,-1.6787,-1.6787,-1.68,-1.6802,-1.6812,-1.6815,-1.6819,-1.6822,-1.6833,-1.6839,-1.684,-1.6843,-1.685,-1.6857,-1.6857,-1.686,-1.6865,-1.6864,-1.6844,-1.6841,-1.6838,-1.6835,-1.6865,-1.6865,-1.6886,-1.6886,-1.6886]},{"header":{"parameterUnit":"m.s-1","parameterCategory":1,"la1":30.2991,"la2":30.254,"lo1":-89.0895,"lo2":-89.0444,"dy":0.0017,"dx":0.0017,"nx":28,"ny":28,"refTime":"2024-08-09T15:00:00:Z","depth":0,"parameterNumber":3,"parameterNumberName":"V-component_of_WINDS"},"data":[0,0,0,0,0,0,0,0,0,0,0,0,0,0,0,0,0,0,0,0,0,0,0,0,0,0,0,0,0,0,0,0,0,0,0,0,0,0,0,0,0,0,0,0,0,0,0,0,0,0,0,0,0,0,0,0,0,0,-3.0067,-3.0067,0,-3.0071,-3.0071,-3.0071,-3.004,-3.0039,-3.0038,-3.0037,-3.004,-3.0041,-3.0042,0,0,0,0,0,0,0,0,0,0,0,0,0,-3.003,-3.0031,-3.0067,-3.0067,-3.0067,-3.0071,-3.0071,-3.0071,-3.004,-3.0039,-3.0038,-3.0037,-3.004,-3.0041,-3.0042,0,0,0,0,0,0,0,0,0,0,0,0,0,-3.0042,-3.0032,-3.0067,-3.0052,-3.0051,-3.0071,-3.0071,-3.0071,-3.004,-3.0039,-3.0038,-3.0036,-3.0039,-3.0041,-3.0042,-3.0077,0,0,-3.0046,-3.0047,0,0,0,0,0,0,0,0,-3.0041,-3.0043,-3.0054,-3.0053,-3.0052,-3.0054,-3.0059,-3.0073,-3.004,-3.0044,-3.0037,-3.0036,-3.0046,-3.0046,-3.005,-3.0077,-3.0077,-3.0046,-3.0047,-3.0048,-3.0048,0,0,0,0,0,0,0,-3.004,-3.0043,-3.0068,-3.0054,-3.0053,-3.0045,-3.0045,-3.0062,-3.0052,-3.0044,-3.0041,-3.0042,-3.0045,-3.0049,-3.005,-3.0077,-3.0046,-3.0047,-3.0048,-3.0049,-3.0134,-3.0135,0,0,0,0,0,0,-3.0042,-3.0042,-3.0068,-3.0069,-3.0043,-3.0046,-3.0046,-3.0054,-3.0052,-3.005,-3.0044,-3.0041,-3.0047,-3.0048,-3.005,-3.0091,-3.0048,-3.0049,-3.005,-3.0132,-3.0134,-3.0136,0,0,0,0,0,0,-3.0041,-3.0044,-3.0068,-3.0055,-3.0057,-3.0048,-3.0057,-3.0055,-3.0059,-3.0052,-3.005,-3.005,-3.0046,-3.0048,-3.0071,-3.0091,-3.005,-3.0051,-3.0131,-3.0133,-3.0135,-3.0174,0,0,0,0,0,0,-3.004,-3.0044,-3.0058,-3.0055,-3.0058,-3.0089,-3.0059,-3.0056,-3.0062,-3.0058,-3.0057,-3.0055,-3.0045,-3.0069,-3.0072,-3.0092,-3.0052,-3.0129,-3.0132,-3.0134,-3.0171,-3.0177,-3.0182,0,0,0,0,0,-3.0039,-3.0068,-3.0058,-3.0062,-3.0075,-3.0091,-3.0092,-3.008,-3.0063,-3.0077,-3.0072,-3.0055,-3.0088,-3.0071,-3.0075,-3.0095,-3.0127,-3.0131,-3.0134,-3.0168,-3.0176,-3.0182,0,0,0,0,0,0,-3.0071,-3.0067,-3.0057,-3.0086,-3.0089,-3.0085,-3.0101,-3.0089,-3.0096,-3.0093,-3.0077,-3.0077,-3.0102,-3.0101,-3.0083,-3.0129,-3.0105,-3.0109,-3.0129,-3.0137,-3.0143,-3.0143,-3.0053,0,0,0,0,0,-3.0082,-3.0096,-3.0091,-3.0117,-3.0119,-3.011,-3.0117,-3.0108,-3.011,-3.0111,-3.0108,-3.0111,-3.0121,-3.0129,-3.0138,-3.017,-3.017,-3.0186,-3.0192,-3.0197,-3.02,-3.0218,-3.0226,-3.0146,-3.0146,-3.0146,0,0,-3.0104,-3.0103,-3.0113,-3.0124,-3.0125,-3.014,-3.0112,-3.0128,-3.0139,-3.0113,-3.0135,-3.0133,-3.0135,-3.0163,-3.0175,-3.0162,-3.0222,-3.0201,-3.0205,-3.0206,-3.0222,-3.023,-3.0237,-3.0148,-3.0148,-3.0148,0,0,-3.0152,-3.0152,-3.0175,-3.0177,-3.018,-3.0174,-3.0179,-3.0178,-3.0176,-3.0198,-3.0179,-3.0191,-3.021,-3.0213,-3.0216,-3.0266,-3.0252,-3.027,-3.0301,-3.0318,-3.0325,-3.033,-3.0349,-3.0356,-3.0274,-3.0274,-3.0274,0,-3.0179,-3.0201,-3.0188,-3.0206,-3.0212,-3.019,-3.0213,-3.0215,-3.0221,-3.0225,-3.0211,-3.0235,-3.0235,-3.0263,-3.0276,-3.0279,-3.0285,-3.027,-3.0325,-3.033,-3.0335,-3.0353,-3.036,-3.0276,-3.0276,-3.0275,-3.0275,0,-3.0234,-3.0249,-3.0267,-3.0274,-3.0282,-3.0302,-3.0292,-3.0301,-3.0291,-3.0287,-3.031,-3.0308,-3.0318,-3.0324,-3.0314,-3.0351,-3.0344,-3.0327,-3.0303,-3.0345,-3.0362,-3.0368,-3.0279,-3.0278,-3.0278,-3.0277,0,0,-3.0302,-3.0303,-3.031,-3.0313,-3.0315,-3.0327,-3.0346,-3.0356,-3.0365,-3.0369,-3.0385,-3.0402,-3.0388,-3.0392,-3.0382,-3.0397,-3.0438,-3.0379,-3.0379,-3.0391,-3.0481,-3.0494,-3.0502,-3.0428,-3.0429,-3.043,-3.0481,0,-3.0349,-3.0384,-3.0373,-3.0407,-3.0422,-3.0402,-3.0419,-3.0422,-3.0419,-3.043,-3.0426,-3.0438,-3.0418,-3.042,-3.0434,-3.043,-3.0456,-3.0426,-3.0444,-3.0444,-3.0445,-3.051,-3.0523,-3.0571,-3.0487,-3.0488,-3.0489,0,-3.0409,-3.0418,-3.0454,-3.0455,-3.046,-3.0476,-3.0485,-3.0496,-3.0499,-3.0496,-3.0501,-3.0488,-3.0507,-3.0482,-3.0509,-3.0489,-3.0495,-3.0494,-3.0496,-3.0497,-3.047,-3.0514,-3.0586,-3.0593,-3.0499,-3.0498,-3.0497,0,-3.0457,-3.0477,-3.0502,-3.0505,-3.0506,-3.0518,-3.0519,-3.0521,-3.0528,-3.0535,-3.054,-3.0549,-3.0555,-3.0562,-3.0552,-3.0535,-3.058,-3.0554,-3.0578,-3.0579,-3.0589,-3.0589,-3.0664,-3.0592,-3.0592,-3.0592,-3.0592,0,-3.0511,-3.0535,-3.0523,-3.0538,-3.0564,-3.0552,-3.0577,-3.0575,-3.0578,-3.0592,-3.0575,-3.0589,-3.0575,-3.0587,-3.0579,-3.0603,-3.0605,-3.0603,-3.0601,-3.0605,-3.0605,-3.0609,-3.0606,-3.0594,-3.0593,-3.0593,-3.0592,0,-3.0569,-3.0562,-3.0588,-3.0588,-3.0588,-3.0607,-3.0606,-3.062,-3.0616,-3.0634,-3.0638,-3.063,-3.0644,-3.0635,-3.0649,-3.0644,-3.0675,-3.0668,-3.0675,-3.0673,-3.0698,-3.0696,-3.0778,-3.0789,-3.071,-3.0711,-3.0711,0,-3.0605,-3.0622,-3.0624,-3.0633,-3.0636,-3.065,-3.0658,-3.0646,-3.0655,-3.066,-3.0674,-3.0687,-3.0696,-3.0719,-3.0715,-3.0726,-3.0719,-3.0747,-3.0721,-3.0725,-3.0721,-3.072,-3.0722,-3.0753,-3.0754,-3.0755,-3.0755,0,-3.0669,-3.0666,-3.0677,-3.0689,-3.0699,-3.0707,-3.0713,-3.0721,-3.071,-3.072,-3.0735,-3.0743,-3.0757,-3.077,-3.078,-3.078,-3.0766,-3.0764,-3.077,-3.0775,-3.0779,-3.0778,-3.069,-3.0762,-3.0761,-3.0761,-3.076,-3.076,-3.0718,-3.0733,-3.0737,-3.0751,-3.0755,-3.0762,-3.0776,-3.0774,-3.0786,-3.0798,-3.079,-3.0808,-3.0811,-3.0822,-3.0824,-3.0837,-3.0826,-3.0835,-3.0837,-3.084,-3.0844,-3.0776,-3.0839,-3.0839,-3.0838,-3.0838,-3.0838,0,-3.0782,-3.0784,-3.0798,-3.0808,-3.082,-3.0806,-3.0813,-3.0823,-3.0839,-3.0844,-3.0854,-3.0871,-3.0884,-3.0881,-3.0893,-3.0904,-3.0898,-3.0907,-3.0907,-3.0907,-3.0853,-3.0847,-3.0912,-3.0912,-3.0912,-3.0912,-3.0912,-3.0912,-3.0817,-3.0843,-3.084,-3.0867,-3.0869,-3.0887,-3.0892,-3.0898,-3.0902,-3.0923,-3.0934,-3.0932,-3.0933,-3.0945,-3.0956,-3.0955,-3.096,-3.0973,-3.0969,-3.0918,-3.0911,-3.0904,-3.0898,-3.0974,-3.0974,-3.1023,-3.1023,-3.1023]}]]